EHI
0 0 0 0 0 0 0 0 0 0 0 0 1 1 1 0 0 0 0 0 1 3 5 6 7 9 9 8 6 6 5 5 5 5 5 4 3 2 1 0 1 1 1 0
0 0 0 0 0 0 0 0 0 0 0 0 0 1 1 0 0 0 0 0 0 2 4 6 6 8 9 8 6 5 4 4 4 4 4 3 3 2 1 0 0 0 0 0
0 0 0 0 0 0 0 0 0 0 0 0 0 0 0 0 0 0 0 0 0 1 3 4 5 6 8 7 6 5 4 3 3 3 3 3 2 1 0 0 0 0 0 0
0 0 0 0 0 0 0 0 0 0 0 0 0 0 0 0 0 0 0 0 0 1 3 3 3 4 6 6 5 4 3 2 2 2 2 2 1 0 0 0 0 0 0 0
0 0 0 0 0 0 0 0 0 0 0 0 0 0 0 0 0 0 0 0 1 2 3 3 3 3 3 4 3 1 1 1 1 1 1 1 0 0 0 0 0 0 0 0
0 0 0 0 0 0 0 0 0 0 0 0 0 0 0 0 0 0 1 1 2 3 3 2 2 1 1 1 1 0 0 0 0 0 0 0 0 0 0 0 0 0 0 0
0 0 0 0 0 0 0 0 0 0 0 0 0 0 0 0 0 1 2 3 3 2 1 1 1 0 0 0 0 0 0 0 0 0 0 0 0 0 0 0 0 0 0 0
0 0 0 0 0 0 0 0 0 0 0 0 0 0 0 0 0 1 2 2 2 1 0 0 0 0 0 0 0 0 0 0 0 0 0 0 0 0 0 0 0 0 0 0
0 0 0 0 0 0 0 0 0 0 0 0 0 0 0 0 0 0 1 1 1 0 0 0 0 0 0 0 0 0 0 0 0 0 0 0 0 0 0 0 0 0 0 0
0 0 0 0 0 0 0 0 0 0 0 0 0 0 0 0 0 0 0 0 0 0 0 0 0 0 0 0 0 0 0 0 0 0 0 0 0 0 0 0 0 0 0 0
0 0 0 0 0 0 0 0 0 0 0 0 0 0 0 0 0 0 0 0 0 0 0 0 0 0 0 0 0 0 0 0 0 0 0 0 0 0 0 0 0 0 0 0
0 0 0 0 0 0 0 0 0 0 0 0 0 0 0 0 0 0 0 0 0 0 0 0 0 0 0 0 0 0 0 0 0 0 0 0 0 0 0 0 0 0 0 0
0 0 0 0 0 0 0 0 0 0 0 0 0 0 0 0 0 0 0 0 0 0 0 0 0 0 0 0 0 0 0 0 0 0 0 0 0 0 0 0 0 0 0 0
0 0 0 0 0 0 0 0 0 0 0 0 0 0 0 0 0 0 0 0 0 0 0 0 0 0 0 0 0 0 0 0 0 0 0 0 0 0 0 0 0 0 0 0
0 0 0 0 0 0 0 0 0 0 0 0 0 0 0 0 0 0 0 0 0 0 0 0 0 0 0 0 0 0 0 0 0 0 0 0 0 0 0 0 0 0 0 0
0 0 0 0 0 0 0 0 0 0 0 0 0 0 0 0 0 0 0 0 0 0 0 0 0 0 0 0 0 0 0 0 0 0 0 0 0 0 0 0 0 0 0 0
0 0 0 0 0 0 0 0 0 0 0 0 0 0 0 0 0 0 0 0 0 0 0 0 0 0 0 0 0 0 0 0 0 0 0 0 0 0 0 0 0 0 0 0
0 0 0 0 0 0 0 0 0 0 0 0 0 0 0 0 0 0 0 0 0 0 0 0 0 0 0 0 0 0 0 0 0 0 0 0 0 0 0 0 0 0 0 0
0 0 0 0 0 0 0 0 0 0 0 0 0 0 0 0 0 0 0 0 0 0 0 0 0 0 0 0 0 0 0 0 0 0 0 0 0 0 0 0 0 0 0 0
0 0 0 0 0 0 0 0 0 0 0 0 0 0 0 0 0 0 0 0 0 0 0 0 0 0 0 0 0 0 0 0 0 0 0 0 0 0 0 0 0 0 0 0
0 0 0 0 0 0 0 0 0 0 0 0 0 0 0 0 0 0 0 0 0 0 0 0 0 0 0 0 0 0 0 0 0 0 0 0 0 0 0 0 0 0 0 0
0 0 0 0 0 0 0 0 0 0 0 0 0 0 0 0 0 0 0 0 0 0 0 0 0 0 0 0 0 0 0 0 0 0 0 0 0 0 0 0 0 0 0 0
0 0 0 0 0 0 0 0 0 0 0 0 0 0 0 0 0 0 0 0 0 0 0 0 0 0 0 0 0 0 0 0 0 0 0 0 0 0 0 0 0 0 0 0
0 0 0 0 0 0 0 0 0 0 0 0 0 0 0 0 0 0 0 0 0 0 0 0 0 0 0 0 0 0 0 0 0 0 0 0 0 0 0 0 0 0 0 0
0 0 0 0 0 0 0 0 0 0 0 0 0 0 0 0 0 0 0 0 0 0 0 0 0 0 0 0 0 0 0 0 0 0 0 0 0 0 0 0 0 0 0 0
0 0 0 0 0 0 0 0 0 0 0 0 0 0 0 0 0 0 0 0 0 0 0 0 0 0 0 0 0 0 0 0 0 0 0 0 0 0 0 0 0 0 0 0
0 0 0 0 0 0 0 0 0 0 0 0 0 0 0 0 0 0 0 0 0 0 0 0 0 0 0 0 0 0 0 0 0 0 0 0 0 0 0 0 0 0 0 0
Wind_Speed
9 7 6 7 7 7 8 7 6 5 3 1 2 3 3 4 4 3 3 3 3 2 2 2 2 2 2 1 1 1 1 0 0 1 1 1 1 1 0 1 1 1 1 0
9 8 7 9 8 8 8 8 7 6 4 1 1 3 3 3 4 3 2 2 2 2 2 2 1 1 2 1 1 1 1 1 1 1 1 1 1 1 1 0 1 0 1 1
7 5 7 9 7 7 6 5 5 6 2 2 3 3 2 2 2 3 3 3 2 2 2 2 1 1 1 1 2 1 1 1 1 1 1 0 1 1 1 0 0 0 0 1
7 7 9 2 1 1 2 2 2 1 2 3 4 3 2 3 4 3 3 2 2 2 2 2 2 1 1 1 2 1 1 1 1 1 1 1 1 1 1 1 0 0 1 1
6 7 7 3 1 1 2 2 1 0 2 3 3 2 1 3 4 3 2 2 2 2 1 1 1 1 1 1 1 1 1 1 1 1 1 1 1 1 1 1 1 1 1 1
6 7 6 0 3 2 1 2 2 1 1 1 1 1 1 3 3 3 3 3 2 2 2 2 2 2 2 1 1 1 1 1 1 1 1 1 1 0 0 0 0 0 1 1
8 8 3 2 2 1 2 1 3 3 2 2 1 1 2 3 3 3 3 2 2 1 1 1 1 2 2 2 2 2 2 1 1 0 1 1 1 1 0 0 0 0 0 1
5 7 3 3 1 2 3 4 5 4 4 3 3 3 3 3 3 2 2 2 1 1 1 1 1 1 2 2 2 2 2 2 1 0 1 0 1 1 1 1 1 1 0 0
3 1 3 4 4 4 4 4 4 4 4 3 2 2 2 2 2 1 1 1 1 0 1 1 1 1 1 1 1 2 1 1 1 1 1 0 0 1 1 1 1 1 1 1
3 1 2 3 4 4 4 4 4 3 3 3 2 2 1 1 1 1 1 1 1 0 1 0 0 1 1 1 1 1 1 1 1 1 1 1 1 0 0 1 1 1 1 1
5 2 2 2 3 4 4 4 4 4 3 3 2 2 2 1 0 0 1 1 1 1 1 0 1 1 1 1 1 2 1 1 1 1 1 1 1 1 1 1 2 1 1 1
3 2 3 2 3 3 3 3 2 2 2 2 2 1 2 1 1 1 1 1 1 1 1 2 2 2 1 1 1 1 2 2 1 1 0 1 1 1 2 1 1 2 2 2
4 4 3 3 3 3 3 3 2 2 1 1 2 2 2 1 1 1 1 1 1 1 1 1 1 2 2 2 1 2 2 2 1 1 1 1 1 1 2 2 2 2 2 2
3 3 3 3 2 2 2 3 3 2 1 1 1 1 1 1 1 0 0 0 1 1 1 1 1 1 2 2 2 2 2 2 2 1 1 1 1 2 2 2 2 2 3 3
4 4 2 2 2 2 2 2 2 2 1 1 1 1 1 1 1 1 1 1 0 1 1 1 1 1 1 1 2 2 2 2 2 2 1 1 2 2 2 2 2 2 1 1
4 3 2 2 2 2 2 3 3 2 1 1 1 1 1 1 1 1 1 0 0 0 1 1 1 1 1 1 1 2 2 3 3 2 2 1 2 2 2 2 2 2 1 1
3 3 3 3 3 3 3 3 3 2 1 1 1 1 1 1 1 1 0 0 0 1 1 1 1 1 1 1 1 1 1 2 4 3 2 2 2 2 2 2 2 1 1 2
3 3 3 3 3 3 3 3 2 2 1 1 1 1 1 2 2 1 1 1 1 1 1 0 0 1 1 1 1 1 2 2 2 2 2 2 2 2 1 1 1 2 1 1
3 3 3 3 2 2 2 2 2 2 1 1 1 2 2 2 2 2 2 2 2 2 2 1 2 1 1 2 2 1 2 2 2 2 2 3 3 2 1 1 1 1 1 1
3 2 2 2 2 2 2 2 2 2 1 1 2 2 2 2 2 2 2 2 2 1 1 1 1 1 1 2 2 1 1 2 2 2 2 2 2 2 2 1 1 2 2 2
2 2 2 2 2 2 2 2 2 2 2 2 2 2 3 3 2 2 2 2 1 1 1 1 1 1 1 2 3 1 1 1 2 2 2 2 2 2 2 2 2 2 2 2
2 2 2 2 1 1 1 1 2 2 2 2 2 2 3 2 2 2 2 1 1 1 1 1 1 1 2 2 1 1 1 1 1 1 1 1 2 2 2 2 2 2 2 2
2 2 2 2 2 2 2 2 2 2 2 2 2 2 3 2 2 1 2 1 0 1 1 1 1 2 2 1 1 1 1 1 2 1 1 1 1 1 2 2 2 2 2 2
2 2 2 2 2 2 2 2 2 2 2 2 2 2 2 2 1 1 1 0 1 1 1 1 1 2 2 1 1 1 1 1 1 1 1 1 1 1 1 2 2 2 2 2
2 2 2 2 2 2 2 2 2 2 1 2 2 1 1 1 1 1 1 0 0 1 1 1 1 2 2 1 1 1 1 1 1 1 1 1 1 2 2 2 2 2 2 2
2 2 1 1 1 1 1 1 1 1 1 2 1 1 1 1 1 1 1 1 0 1 1 0 1 1 1 1 1 1 1 1 2 1 1 1 1 1 2 2 2 1 1 2
1 1 1 1 1 1 1 1 1 1 1 1 2 2 1 1 1 1 1 0 0 0 1 0 1 1 1 1 1 1 1 1 1 1 1 1 1 1 2 2 1 1 1 1
Wind_Direction
281 286 280 272 261 258 255 262 267 281 283 178 124 120 120 112 106 102 96 97 99 106 113 112 120 132 135 130 123 126 119 125 153 173 185 276 283 278 254 247 234 182 149 81
276 270 268 266 255 247 247 253 260 272 280 30 86 85 88 92 95 93 92 80 73 78 95 118 119 117 125 138 130 111 94 70 67 63 70 335 314 318 334 281 257 236 185 151
278 269 272 260 248 242 245 248 265 270 281 61 74 74 72 74 95 94 90 74 66 65 61 51 87 112 118 125 114 118 109 78 64 58 67 348 323 337 324 289 236 221 49 92
275 276 260 258 59 207 243 274 296 322 47 75 69 66 65 74 87 76 73 69 66 64 58 39 28 34 117 90 95 97 86 74 66 68 65 26 21 18 350 13 56 107 112 93
263 267 268 238 203 218 236 264 330 2 88 79 67 50 73 74 78 78 73 63 58 64 56 33 38 39 65 121 117 99 81 65 61 64 63 66 68 38 345 12 11 5 45 76
259 263 262 62 82 63 328 247 52 48 86 98 65 292 345 46 64 64 62 55 54 56 41 38 41 45 45 52 83 83 77 67 71 79 99 125 151 166 279 173 238 338 40 38
251 258 264 50 59 88 240 38 61 42 43 37 344 14 61 50 54 64 64 48 30 31 39 37 32 36 35 31 29 38 43 45 64 107 164 167 160 178 193 153 107 42 59 357
252 253 243 52 41 34 33 43 47 42 43 54 52 49 59 58 51 51 55 45 31 40 41 35 38 47 24 27 25 27 38 32 9 340 283 188 155 205 200 178 184 202 195 308
297 323 40 43 39 38 33 37 38 36 33 43 40 43 45 47 47 42 55 48 28 122 110 45 20 30 36 37 44 30 15 345 330 339 327 355 205 214 208 205 195 205 209 223
284 283 15 34 33 31 29 28 32 35 29 23 20 22 23 8 36 55 17 15 5 322 179 189 5 12 56 67 50 5 324 307 297 333 343 334 322 270 217 240 230 221 222 233
272 287 334 13 28 20 14 13 16 23 20 10 1 356 346 328 345 91 29 22 13 349 311 8 41 33 52 55 11 340 326 324 323 331 310 305 324 294 253 229 210 222 240 220
284 320 310 321 352 348 342 339 347 352 349 359 357 348 339 341 5 49 65 35 19 358 2 14 28 21 27 40 9 334 325 327 320 316 311 309 319 335 334 287 267 247 232 231
321 334 343 339 332 334 328 339 344 343 348 4 357 3 352 341 342 24 71 43 9 353 357 15 22 8 11 8 358 332 322 319 317 316 306 292 285 285 300 317 305 289 277 250
342 340 321 325 329 344 345 344 343 340 349 354 353 2 350 333 323 36 80 48 16 352 355 9 2 355 9 7 3 347 334 321 314 296 290 276 268 267 263 263 272 276 269 257
311 316 312 324 332 323 319 319 312 309 327 350 1 350 339 334 326 357 59 78 59 322 343 354 338 353 20 5 340 329 321 305 294 287 284 278 277 275 270 268 267 267 247 238
292 297 301 284 280 293 295 289 288 295 302 321 337 335 338 336 335 360 46 97 169 280 305 304 303 321 5 342 325 320 314 316 320 307 290 279 281 277 273 271 274 275 247 210
274 269 268 259 259 269 279 285 286 294 298 302 304 316 305 294 285 293 303 289 256 261 267 270 290 332 345 314 303 298 297 300 307 301 285 276 273 269 273 278 277 281 271 238
274 277 266 255 257 265 278 286 289 295 290 288 298 271 263 270 261 258 271 272 280 280 270 267 315 322 309 299 284 272 272 274 280 281 284 289 288 278 269 269 279 289 287 266
264 272 277 271 265 270 287 297 300 300 300 286 267 262 265 270 265 261 257 240 249 263 279 301 315 295 270 285 303 272 270 272 277 278 270 280 286 288 293 295 301 298 299 297
276 275 273 274 274 269 275 280 289 292 293 286 280 282 275 273 266 260 254 240 235 257 284 323 298 277 268 274 297 274 268 269 277 285 281 273 273 278 282 284 286 288 284 278
285 284 275 264 263 268 268 266 273 277 280 270 265 273 275 276 276 272 265 259 264 324 299 273 263 280 282 309 300 297 289 281 274 274 275 275 273 272 271 271 270 269 271 274
276 279 280 279 268 266 269 270 271 277 277 276 280 285 282 278 276 268 258 256 268 284 277 245 246 312 332 327 286 294 294 295 295 294 289 281 270 268 271 276 273 273 275 270
280 283 277 273 273 268 261 264 266 267 266 267 267 272 273 274 269 265 273 280 244 270 262 244 307 316 319 286 261 278 280 283 288 288 289 291 291 288 284 283 280 278 275 272
286 286 289 294 286 276 272 276 283 281 283 280 267 275 286 287 284 282 293 282 318 291 278 226 249 270 280 259 250 262 266 269 277 283 284 283 283 282 281 281 284 286 290 288
286 282 277 279 275 273 282 297 300 300 308 304 299 306 317 321 318 333 2 89 321 312 308 236 249 260 251 254 245 254 259 268 288 292 282 286 286 280 277 281 288 294 295 291
297 292 289 295 313 314 303 302 296 308 316 309 312 329 347 13 21 24 18 29 34 331 325 205 225 240 260 286 291 286 280 278 275 271 272 272 277 284 284 281 279 274 278 286
277 284 294 294 308 320 307 292 293 297 297 319 320 326 350 15 25 17 18 20 4 289 281 241 232 243 273 291 294 294 289 283 275 272 275 271 270 272 277 286 291 289 281 282